Regional Weather Roundup
Issued by NWS Charleston, WV

Home | Current Version | Previous Version | Graphics & Text | Print | Product List | Glossary On
Versions: 1 2 3 4 5 6 7 8 9 10 11 12 13 14 15 16 17 18 19 20 21 22 23 24 25 26 27 28 29 30 31 32 33 34 35 36 37 38 39 40 41 42 43 44 45 46 47 48 49 50
000
ASUS41 KRLX 040010
RWRRLX
West Virginia Regional Weather Roundup
National Weather Service Charleston WV
800 PM EDT TUE MAY 03 2016

Note: "fair" indicates few or no clouds below 12,000 feet with no
significant weather and/or obstructions to visibility.

WVZ003-040100-
Northern Panhandle of West Virginia

CITY           SKY/WX    TMP DP  RH WIND       PRES   REMARKS
WHEELING       CLOUDY    58  42  55 W5        29.81S
$$

WVZ009-040100-
Northwest West Virginia

CITY           SKY/WX    TMP DP  RH WIND       PRES   REMARKS
PARKERSBURG    MOCLDY   N/A N/A N/A W5        29.85F
$$

WVZ006-040100-
Western West Virginia

CITY           SKY/WX    TMP DP  RH WIND       PRES   REMARKS
HUNTINGTON     CLOUDY    59  50  72 NW5       29.85R
$$

WVZ015-040100-
West Central West Virginia

CITY           SKY/WX    TMP DP  RH WIND       PRES   REMARKS
CHARLESTON     MOCLDY    58  51  78 CALM      29.85S
$$

WVZ022-031-040100-
North Central West Virginia

CITY           SKY/WX    TMP DP  RH WIND       PRES   REMARKS
CLARKSBURG     CLOUDY    56  48  74 W5        29.83R
MORGANTOWN     LGT RAIN  56  49  77 S3        29.83R
$$

WVZ025-035-042-045-040100-
Southern West Virginia

CITY           SKY/WX    TMP DP  RH WIND       PRES   REMARKS
BECKLEY        MOCLDY    55  47  74 N9        29.85S
LOGAN          NOT AVBL
BLUEFIELD      CLOUDY    55  44  66 NW10      29.87R
LEWISBURG        N/A     56  49  78 NW7       29.84R
$$

WVZ047-040100-
Northern Mountains of West Virginia

CITY           SKY/WX    TMP DP  RH WIND       PRES   REMARKS
ELKINS         LGT RAIN  53  49  86 CALM      29.85R
$$

WVZ052-040100-
Eastern Panhandle of West Virginia

CITY           SKY/WX    TMP DP  RH WIND       PRES   REMARKS
MARTINSBURG    RAIN      60  59  96 SE3       29.77R FOG
PETERSBURG     RAIN      62  54  74 NW5       29.80R
$$



USA.gov is the U.S. government's official web portal to all federal, state and local government web resources and services.